STARLINK-1402, 45685

Orbit data source: Space-Track

STARLINK-1402, 45685 is a payload satellite owned by SpaceX/Seattle (US) in LEO that was launched on Thu, 04 Jun 2020 UTC via an FALCON 9 launch vehicle from the Air Force Eastern Test Range (AFETR). Payloads include a variety of satellites, spacecraft, and rockets equipped with specific instruments for various scientific and technological missions. These include communications satellites like Starlink; space stations such as the ISS; scientific satellites like the Hubble; Earth observation satellites from companies like Planet Labs, Umbra, and HawkEye 360; GPS; miniature CubeSats for education and research; and military/defense satellites.

Loading next visibility...
STARLINK-1402 details
Identifier
45685, 2020-035AE
Orbit
LEO
Last TLE update20 hours ago
Origin
Flag of USSpaceX/Seattle (US)
ManufacturerSpaceX/Seattle
MissionOperational Commercial Communications
Bus & MotorSTARLINK, Unknown motor
Mass260 kg wet, ~248 kg dry
Launch date (UTC)
2020-06-04 (5 years ago)
Launch vehicle
FALCON 9
Launch site
Air Force Eastern Test Range (AFETR)
Object type
Payload
Rocket body
Debris
Shape & HBRBox + 1 Pan, 8.86 m
Radar Cross Section13.562 m², Large (>1 m²)

Expand to show TLE details & history

TLE from 20 hours ago
0 STARLINK-1402
1 45685U 20035AE  24360.59015821  .00006692  00000-0  46764-3 0  9997
2 45685  53.0528 222.2337 0001391  81.5920 278.5227 15.06407916252778
Epoch: 2024-12-25T14:09Z
Definitive object data (Epoch: 2024-12-25T14:09:49.669Z)
Latitude0.00002°
Longitude-84.80497°
Altitude547.924 km
Speed7.589 km/s
True Right ascension14h 48m 56s
True Declination0° 00' 00"
Sunlit
Object was in daylight at TLE epoch
Visualization TLE readout
Latitude-47.65479°
Longitude-143.7812°
Altitude564.304 km
Speed7.578 km/s
Apparent Right ascension17h 04m 04s
Apparent Declination-82° 23' 47"
Sunlit
Object is in daylight
Visualization observer readout
Local Sidereal Time09:55:09
Azimuth170.245° S
Elevation-41.766°
Doppler factor1
Orbital elements
Apogee altitude548.422 km
Perigee altitude546.495 km
Semi-major axis6,925.595 km
Eccentricity0.0001391
Inclination53.0528°
RAAN222.2337°
Arg. of periapsis81.592°
True anomaly278.50694°
Mean anomaly278.5227°
Eccentric anomaly278.51482°
Mean motion3.7658 °/min
BSTAR0.00046764
Orbital period95.6 mins
Loading maneuver chart data...

STARLINK-1402 Visibility forecast

Observer location: undefined°, undefined

Span
Click to sort rows by Start time (UTC) header in descending order
Start Az.
Max El. time (UTC)
Max El. Az.
Max El.
End time (UTC)
End Az.
7 mins2024-12-26 17:23:57.105Z219.384° SW2024-12-26 17:27:57.105Z98.432° ESE41.85°2024-12-26 17:30:57.105Z55.762° ENE
4 mins2024-12-26 19:05:57.105Z303.917° NW2024-12-26 19:06:57.105Z324.776° NNW21.963°2024-12-26 19:09:57.105Z23.085° NE
6 mins2024-12-27 00:06:57.105Z320.322° NNW2024-12-27 00:08:57.105Z21.424° NNE42.714°2024-12-27 00:12:57.105Z121.196° SE
|